Погода в Претории

Россия / Оренбургская область     52°14′46″N   54°19′32″E
темп.,
°C
ветер,
м/с
пор.,
м/с
влажн.,
%
обл.,
%
осадки,
мм/ч
давл.,
гПа
погр.,
м
17 сентября, пт
пт1723:00+10ссз3656100 0.0 1009503
02:00+7ссз486138 0.0 1011649
05:00+7сз5858100 0.0 10121393
08:00+7сз5966100 0.0 1012597
11:00+8сз5666100 0.0 1014692
14:00+10зсз6755100 0.1 10141485
17:00+10сз6748100 0.1 10141665
20:00+9сз4650100 0.0 1015654
18 сентября, сб
сб1823:00+8сз3550100 0.0 1015357
02:00+8зсз3652100 0.0 1015435
05:00+7зсз3655100 0.0 1015393
08:00+6зсз485999 0.0 1016517
11:00+9сз684978 0.1 10171716
14:00+11сз683595 0.0 10172094
17:00+12сз783662 0.0 10172056
20:00+7ссз59575 0.0 1019312
19 сентября, вс
вс1923:00+4сз366812 0.0 1021151
02:00+6сз355655 0.0 1021498
05:00+3зсз226399 0.0 102222
08:00+3сз2767100 0.0 1023272
11:00+7сз56517 0.0 10241005
14:00+11сз55355 0.0 10241260
17:00+11сз453092 0.0 10231315
20:00+7сз224290 0.0 102411
20 сентября, пн
пн2023:00+5с114980 0.0 102410
02:00+5св015194 0.0 102510
05:00+4в1153100 0.0 102510
08:00+5вюв115277 0.0 102611
11:00+10вюв223694 0.0 1025611
14:00+13вюв222889 0.0 10251160
17:00+14вюв3325100 0.0 10241291
20:00+11в3533100 0.0 102472
21 сентября, вт
вт2123:00+9в4838100 0.0 1024197
02:00+9в4742100 0.0 1025243
05:00+9в4941100 0.0 1024278
08:00+10вюв61137100 0.0 1023348
11:00+10вюв61233100 0.0 1023427
14:00+11вюв71232100 0.0 1022451
17:00+13юв61032100 0.0 1021598
20:00+13юв61128100 0.0 1021550